Skip Page Navigation
NASA JPL Caltech
NASA Logo - Jet Propulsion Laboratory + View the NASA Portal
+ Center for Near-Earth Object Studies
JPL Home Earth Solar System Stars & Galaxies Technology
JPL Solar System Dynamics
BODIES ORBITS EPHEMERIDES TOOLS PHYSICAL DATA DISCOVERY FAQ SITE MAP
JPL Small-Body Database Browser
Search: [ help ]  
5011 Ptah (6743 P-L)
Classification: Apollo [NEO, PHA]          SPK-ID: 2005011
Ephemeris | Orbit Diagram | Orbital Elements | Mission Design | Physical Parameters | Discovery Circumstances | Close-Approach Data ]

[ hide orbit diagram ]

For accurate long-term ephemerides, please instead use our Horizons system.This orbit viewer was implemented using two-body methods, and hence should not be used for determining accurate long-term trajectories (over several years or decades) or planetary encounter circumstances.


[ revert to old Java-based viewer ]

Orbital Elements at Epoch 2459000.5 (2020-May-31.0) TDB
Reference: JPL 151 (heliocentric ecliptic J2000)
 Element Value Uncertainty (1-sigma)   Units 
e .5000774557237805 5.8602e-08  
a 1.636361894102972 8.4798e-09 au
q .8180542014566113 9.2894e-08 au
i 7.405384898813766 4.0464e-06 deg
node 10.72728509485382 3.1863e-05 deg
peri 105.8139192770298 3.2383e-05 deg
M 140.140480760133 2.1084e-05 deg
tp 2458702.868724551226
(2019-Aug-07.36872455)
4.2553e-05 TDB
period 764.5703695347951
2.09
5.9431e-06
1.627e-08
d
yr
n .4708526701329571 3.66e-09 deg/d
Q 2.454669586749333 1.272e-08 au
  Orbit Determination Parameters
   # obs. used (total)      621  
   data-arc span      21850 days (59.82 yr)  
   first obs. used      1960-09-24  
   last obs. used      2020-07-21  
   planetary ephem.      DE431  
   SB-pert. ephem.      SB431-N16  
   condition code      0  
   norm. resid. RMS      .5039  
   source      ORB  
   producer      Otto Matic  
   solution date      2020-Jul-22 06:34:43  

Additional Information
 Earth MOID = .0248728 au 
 Jupiter MOID = 2.69286 au 
 T_jup = 4.143 
[ show covariance matrix ]

Ephemeris | Orbit Diagram | Orbital Elements | Mission Design | Physical Parameters | Discovery Circumstances | Close-Approach Data ]

Physical Parameter Table
Parameter Symbol Value Units Sigma Reference Notes
absolute magnitude H 16.4   n/a MPO302094  
rotation period rot_per 56.3 h n/a LCDB (Rev. 2019-August); Warner et al., 2009 Result based on less than full coverage, so that the period may be wrong by 30 percent or so.
Published Reference List:
[Skiff, B.A.; McLelland, K.P.; Sanborn, J.; Pravec, P.; Koehn, B.W. (2019). Minor Planet Bull. 46-4, in press.]

5011 Ptah (6743 P-L)          Discovered 1960-Sep-24 by van Houten and Gehrels at Palomar
Reference: DISCOVERY.DBLast Updated: 2003-08-29

